{"data":{"norad_id":51988,"intl_designator":"2022-025AJ","name":"STARLINK-3640","alt_names":[],"object_type":"PAYLOAD","status":"ACTIVE","operator":null,"country":"US","launch_date":"2022-03-09","launch_site_code":"AFETR","launch_vehicle":null,"mission":null,"orbit_class":"UNKNOWN","rcs_meters":null,"size_class":null,"mass_kg":null,"dimensions":null,"purposes":["comms"],"wikipedia_slug":null,"has_3d_model":false,"image_url":null,"decayed_at":null,"tle_current":{"epoch":"2026-05-25T01:42:21.941856Z","epoch_age_seconds":69746,"freshness":"FRESH","line1":"1 51988U 22025AJ  26145.07108729  .00000137  00000+0  26681-4 0  9991","line2":"2 51988  53.2136  56.2304 0001530  91.2756 268.8411 15.08842664232597","mean_motion":15.08842664,"eccentricity":0.000153,"inclination_deg":53.2136,"raan_deg":56.2304,"arg_perigee_deg":91.2756,"mean_anomaly_deg":268.8411,"bstar":2.6681e-5,"rev_number":23259,"period_min":95.437386174017,"perigee_km":538.67681174017,"apogee_km":540.7936806475,"semimajor_km":6917.8722461938,"source":"CELESTRAK","updated_at":"2026-05-25T13:38:16.996925Z"}}}